Starlink 31592

operational
NORAD ID: 59467 Int'l Des: 2024-068 Owner: SPXS Country: US Constellation: starlink
LEOCIRCULAR

About Starlink 31592

Description loading...

Live Position

Loading 3D Globe...

Upcoming Passes

Altitude History

Altitude vs Time

uPlot chart will show altitude changes over time

Two-Line Element Set

1 59467U 24068N 26034.25699033 .00000147 00000-0 14857-4 0 9994
2 59467 43.0025 229.2427 0000953 279.3109 80.7635 15.27573085103256
Epoch: Feb 3, 2026 • Age: 7 hours

Current Status

Altitude 484.4 km
Velocity 7.63 km/s
Sub-Earth Point 31.00°N, 38.82°E
Launch Date Apr 10, 2024
Age 1.8 years
Type internet

Technical Details

Classification Payload
Mass 730.00 kg
Dry Mass 700.00 kg
Total Mass 730.00 kg
Length 0.30 m
Diameter 4.10 m
Span 29.00 m
Shape Box + pan
Manufacturer SPXS
Bus Type Starlink V2M
Phase Status In Orbit
Owner/State SPXS/US

Large Constellations

Loading constellations...